Theta_e
311 311 311 312 311 310 309 309 310 310 309 310 310 311 313 315 317 319 321 323 325 326 325 326 326 326 326 326 326 327 326 326 326 326 326 327 327 326 326 326 326 325 325 325 325 325 325 326 325 325 325 324 323 323 323 323 323 322 321 321 321 321
310 309 310 311 311 309 308 308 308 307 308 308 309 310 311 313 315 318 319 322 323 325 326 326 326 326 326 326 326 325 325 326 326 326 326 326 327 327 327 326 325 325 324 324 324 324 325 325 325 325 324 324 323 323 322 323 322 321 320 321 321 321
308 309 309 308 305 304 304 304 304 305 306 307 307 308 309 311 313 316 318 321 323 323 324 325 326 326 326 326 326 325 326 326 325 326 327 327 326 327 326 325 325 324 324 324 323 324 324 324 324 324 324 323 322 322 323 322 322 321 320 320 320 321
309 310 308 306 304 304 304 304 303 303 303 305 306 307 308 310 312 315 318 320 322 322 323 324 326 326 326 326 326 325 325 326 326 326 326 326 326 326 326 325 325 324 324 323 323 323 323 324 323 324 323 322 321 321 322 322 321 320 320 320 318 319
307 305 303 302 302 303 303 303 303 303 304 304 304 305 307 309 311 314 316 318 320 321 322 324 325 326 326 325 325 325 325 325 326 326 325 325 325 326 326 325 324 324 323 323 322 322 322 323 323 323 323 322 321 320 320 320 320 320 318 318 317 317
305 304 305 305 305 305 305 303 303 302 302 303 303 304 305 307 309 311 313 315 317 319 321 322 323 324 324 324 325 325 325 326 326 326 325 325 325 324 325 325 324 323 323 322 321 321 322 322 322 322 322 322 321 321 320 320 320 320 319 318 317 317
303 305 305 304 304 304 304 303 303 302 302 302 302 303 304 305 306 307 310 312 314 316 318 319 320 321 322 322 323 324 325 325 325 324 324 324 324 324 324 323 323 323 322 322 321 321 321 321 321 321 321 321 321 321 320 320 320 319 318 318 318 311
303 305 305 305 303 303 303 304 303 302 302 303 302 302 303 303 303 304 306 309 311 313 314 316 317 318 319 320 321 322 323 323 323 324 324 323 323 323 323 323 322 321 321 321 321 321 321 321 321 321 321 320 320 320 320 320 319 319 319 318 318 319
304 305 306 306 306 303 302 302 303 303 303 303 302 301 302 302 302 302 302 305 307 309 311 313 314 316 317 317 318 319 320 320 321 321 321 322 321 321 321 321 320 320 320 321 321 320 320 320 320 319 319 320 319 318 318 317 318 318 318 318 318 318
304 304 307 308 309 307 304 303 302 302 302 303 303 301 300 301 300 301 301 302 303 305 307 310 312 312 313 314 315 315 316 317 317 318 319 319 318 319 320 319 318 318 317 318 319 320 319 319 319 319 319 319 319 318 317 318 316 316 317 317 318 318
307 306 306 308 307 306 307 306 306 304 304 303 301 299 299 300 300 300 301 301 301 303 305 306 306 307 308 308 309 311 312 313 314 314 314 314 315 316 318 319 319 317 316 316 317 317 318 318 318 318 318 317 317 318 317 317 316 315 315 315 315 315
310 309 307 307 307 307 307 309 309 307 305 305 304 301 300 298 298 299 300 301 302 303 304 304 303 303 303 304 305 307 309 309 310 310 309 309 311 313 313 315 315 315 315 315 314 315 316 316 317 308 305 307 316 317 317 317 316 315 315 314 311 308
310 311 310 307 306 306 306 307 308 308 306 305 304 304 302 299 299 299 299 300 302 302 302 301 301 301 300 301 302 304 304 305 305 305 306 306 307 308 309 310 311 312 313 314 313 313 314 315 314 304 304 304 304 313 317 316 315 314 313 312 310 308
310 310 310 309 310 306 305 306 306 306 305 306 304 303 301 299 299 300 300 301 301 301 301 300 300 299 299 299 299 300 300 300 300 299 301 301 301 302 301 303 307 309 310 311 311 312 312 313 304 304 303 303 303 302 312 316 315 314 313 309 307 306
310 309 308 308 307 307 305 304 304 305 306 305 304 303 301 300 301 301 301 302 301 301 302 301 301 300 300 299 298 298 297 297 296 297 297 299 300 299 299 302 303 304 306 308 308 309 309 309 303 302 302 302 302 301 304 313 314 312 310 307 305 305
310 309 308 307 307 306 305 304 304 304 304 302 301 300 301 301 301 301 301 301 301 302 302 300 300 299 299 299 297 296 295 295 295 296 297 298 298 298 299 299 299 301 302 304 305 306 305 305 301 301 300 300 300 301 301 309 311 310 306 305 304 303
307 307 306 305 304 304 305 304 303 302 301 301 300 301 300 301 301 301 301 301 301 301 300 300 299 298 299 299 297 296 295 294 294 295 296 297 297 297 298 298 298 299 299 300 301 301 301 304 299 299 299 299 299 300 299 307 308 307 303 303 302 302
306 305 304 304 304 304 304 303 302 301 302 302 300 301 300 300 300 301 301 300 301 300 301 300 299 299 299 298 297 295 294 294 294 294 295 295 295 296 297 297 298 299 299 299 298 299 300 302 298 297 297 298 299 299 301 304 304 303 302 300 299 299
303 303 302 302 303 303 304 303 301 301 301 302 303 300 300 299 299 301 301 301 301 301 301 300 300 299 299 298 296 296 295 294 294 293 294 295 294 295 295 296 297 297 298 297 297 299 300 301 298 296 296 297 297 298 300 300 300 300 300 299 297 297
302 302 301 301 302 304 304 302 300 300 301 301 301 300 300 299 300 301 301 301 301 301 301 301 300 299 298 298 296 295 296 296 295 293 293 294 294 294 295 295 296 296 297 296 296 297 298 299 297 294 295 296 296 297 299 298 298 297 297 297 295 295
299 299 300 302 301 303 302 300 299 299 299 299 299 299 299 299 300 301 301 301 301 301 301 300 299 298 298 296 297 295 294 293 293 293 293 293 294 294 295 294 295 294 293 294 295 291 294 297 295 294 295 294 295 295 299 298 297 297 296 296 294 292
299 300 300 300 301 301 300 299 298 297 297 298 298 298 298 299 300 301 301 301 300 300 300 299 294 297 293 293 293 293 294 293 293 292 292 292 293 293 294 294 293 292 294 293 292 293 294 294 295 294 293 294 294 295 296 297 297 296 295 293 294 291
298 298 299 300 300 299 299 298 297 297 298 297 297 297 299 300 300 300 300 299 299 299 299 299 298 293 293 292 294 293 292 293 293 292 291 291 292 292 293 292 291 291 292 293 292 293 292 294 294 292 292 293 294 294 295 296 296 297 295 293 292 292
297 296 296 297 298 298 298 297 296 296 297 296 296 297 299 299 299 299 299 298 298 298 297 293 293 292 292 291 291 291 291 292 291 291 291 292 292 290 290 290 291 292 292 292 292 292 293 292 290 295 292 292 293 294 294 296 295 296 295 294 292 292
295 296 296 296 296 297 297 294 292 294 295 295 296 298 298 298 298 298 297 297 296 293 292 292 291 291 291 290 290 290 290 291 290 289 290 290 290 290 289 289 290 290 291 292 293 293 293 293 292 290 292 291 292 293 294 294 295 294 294 295 293 293
294 295 295 295 294 294 293 293 292 292 291 294 296 296 296 296 297 296 294 291 292 292 291 290 290 290 291 290 290 290 289 290 290 290 290 290 290 291 290 291 290 290 290 290 292 293 294 294 293 290 289 291 291 292 293 294 294 294 294 295 296 293
291 292 292 292 292 293 294 294 292 289 289 294 296 296 295 295 292 291 290 290 290 290 290 290 290 290 290 290 290 290 290 289 289 290 290 290 290 290 290 291 291 291 291 291 291 292 294 294 293 294 291 288 289 291 293 293 293 294 293 293 294 294
290 290 290 290 290 291 291 291 292 289 292 295 295 295 294 291 289 289 289 289 290 290 290 289 290 290 289 289 290 290 291 291 291 290 291 291 290 290 290 290 290 290 290 291 292 292 293 293 293 292 292 288 288 289 291 292 292 291 290 291 292 289
289 290 290 290 291 291 291 289 290 291 292 293 294 292 291 289 289 289 289 290 290 290 290 290 291 292 292 290 290 291 291 292 292 291 291 291 291 290 290 290 290 290 290 290 291 291 293 293 292 291 291 290 289 289 290 290 290 289 288 289 290 288
288 289 289 290 292 292 291 290 290 292 291 290 290 289 289 288 289 289 290 290 290 291 291 291 289 290 291 292 291 291 291 291 291 291 291 291 291 291 290 290 290 290 290 291 291 291 292 293 293 291 290 291 291 290 291 291 291 290 290 291 289 288
288 288 289 290 291 291 290 290 290 291 290 290 289 289 288 289 289 289 289 289 290 291 291 291 291 291 291 291 291 291 292 292 291 291 291 291 292 292 291 291 291 291 292 292 292 291 291 292 292 291 291 291 291 291 291 290 291 291 290 289 288 286
288 288 288 290 291 290 290 290 291 291 291 290 289 289 288 288 289 289 290 290 291 291 291 291 292 292 291 291 291 290 290 289 288 291 291 291 289 289 289 290 292 293 293 293 293 293 292 292 294 292 291 291 290 290 290 291 291 291 290 288 288 287
288 288 288 289 290 290 290 290 291 291 290 289 289 289 289 289 289 290 291 291 291 291 291 291 291 291 291 291 291 290 290 290 290 288 288 289 289 289 288 288 289 290 290 291 292 291 291 291 291 291 290 290 290 290 290 290 290 290 289 289 287 288
288 288 288 290 290 289 289 289 290 291 290 289 289 289 289 289 289 290 291 291 291 291 291 291 291 290 290 291 291 290 290 290 290 291 288 287 287 288 288 288 288 288 289 289 289 290 292 290 290 290 289 289 289 289 289 290 290 290 289 289 289 288
289 290 290 290 289 289 289 289 290 290 289 289 289 288 288 288 288 289 289 290 290 291 291 290 290 290 290 290 290 290 290 289 290 289 290 289 287 287 288 288 288 288 288 289 289 289 290 290 290 289 289 288 288 289 289 289 290 290 290 289 288 288
289 289 289 289 288 288 288 288 289 289 289 288 288 288 288 288 288 288 289 290 290 290 290 290 290 290 291 290 291 291 290 290 290 290 289 289 290 289 287 287 287 287 288 288 289 289 289 289 290 288 288 288 288 288 289 289 289 290 290 288 287 288
288 288 288 287 287 287 287 288 289 288 288 288 288 288 288 288 288 289 288 287 287 289 289 290 290 290 290 290 290 290 290 289 290 290 289 289 289 289 289 289 288 287 287 288 288 288 289 289 289 289 288 288 288 288 289 289 287 286 287 287 287 288
287 287 287 287 288 287 287 288 289 288 288 288 288 287 287 288 288 288 289 289 289 289 289 289 289 290 290 290 290 290 289 290 290 290 290 289 289 289 289 289 290 289 287 286 287 288 288 288 289 289 288 288 288 288 289 286 286 286 285 285 287 287
Wind_Speed
7 8 10 9 8 8 8 7 6 7 8 9 10 12 11 10 9 10 10 11 10 10 13 15 14 13 13 13 13 12 12 13 12 13 13 11 11 10 10 10 10 10 11 12 13 14 16 16 16 15 15 15 15 15 14 15 15 14 16 15 15 15
7 9 10 10 7 5 6 6 5 8 9 9 10 10 9 9 10 10 11 11 11 10 10 12 12 12 12 12 12 12 13 13 13 13 13 13 10 10 11 10 11 11 12 11 13 13 16 16 16 15 15 15 15 14 14 14 16 16 15 15 14 11
8 10 7 5 5 6 6 5 7 7 6 8 9 10 11 11 11 10 11 9 10 11 12 12 11 13 11 12 12 13 13 13 13 13 12 10 11 11 10 11 12 12 13 13 12 14 16 17 15 15 14 15 16 15 16 15 15 16 16 13 11 10
10 7 2 3 5 7 7 6 5 7 8 7 7 8 9 9 8 8 7 8 8 10 11 12 10 11 11 12 13 13 14 13 13 12 11 12 12 11 11 12 12 12 13 13 13 13 14 15 15 17 15 15 16 16 13 14 16 16 14 10 13 13
9 7 7 7 8 8 7 6 5 6 6 6 6 7 8 6 6 5 6 7 8 10 9 10 10 9 10 12 12 13 14 13 12 10 11 11 11 11 11 12 12 12 12 12 13 13 14 16 16 17 17 16 17 17 16 15 16 15 12 13 12 12
8 8 8 6 5 5 5 4 5 6 5 6 5 7 6 5 5 5 6 7 9 9 9 9 9 9 10 11 11 13 13 11 10 9 10 12 11 11 11 11 12 13 14 14 14 16 16 17 18 17 15 18 17 17 17 16 15 13 13 13 13 12
8 7 7 7 7 6 5 4 4 4 5 4 5 6 5 4 4 5 6 7 8 8 9 10 9 10 11 12 10 12 11 11 13 12 14 13 14 16 15 13 13 16 16 16 18 18 18 18 18 18 17 18 16 16 15 14 12 13 13 13 13 12
7 6 7 7 5 4 5 5 4 4 4 5 4 5 4 5 4 5 5 6 7 8 9 9 8 10 11 10 10 11 10 11 14 14 12 13 15 15 15 14 13 13 16 16 17 17 17 17 16 16 16 16 13 12 12 12 12 13 13 13 13 13
7 9 9 8 6 2 3 5 5 3 3 4 4 4 4 4 3 4 5 5 6 7 9 8 9 8 8 8 8 7 7 9 13 14 14 10 11 11 11 11 12 11 12 13 12 13 13 13 12 12 13 13 13 13 13 13 13 13 12 12 12 12
6 6 9 9 11 10 4 4 4 4 3 4 2 2 2 3 4 4 4 4 6 7 8 7 5 5 6 6 6 7 8 8 10 14 13 11 11 12 12 12 12 11 11 12 13 14 12 12 12 12 13 13 13 12 13 13 12 12 12 12 12 12
6 8 8 9 9 10 11 6 3 2 4 3 2 2 4 3 3 5 5 5 7 8 5 4 4 5 6 6 7 8 9 9 9 10 10 9 10 10 11 12 11 11 11 11 13 12 12 12 13 12 12 12 13 13 12 12 12 12 11 11 11 11
10 9 8 8 9 8 7 9 11 9 6 6 2 3 2 2 3 5 5 6 7 6 5 5 5 5 6 7 8 8 7 7 8 9 9 10 10 11 10 10 10 10 11 12 12 11 11 11 11 14 18 16 12 11 11 10 11 12 11 11 10 9
15 11 8 8 7 7 7 7 7 9 10 6 5 3 0 2 3 5 6 7 6 5 5 5 6 5 7 8 7 7 7 8 8 9 10 10 10 10 10 9 10 11 11 11 11 11 11 11 11 16 16 18 18 14 11 11 10 10 10 10 11 11
13 13 12 10 7 4 6 8 8 8 10 8 6 4 1 2 4 5 6 6 6 6 6 6 6 6 7 6 7 6 6 6 7 9 10 10 10 10 6 9 12 11 10 10 10 11 12 12 13 15 16 17 18 16 12 10 10 10 11 10 10 9
11 11 11 8 9 7 5 6 7 9 8 7 5 3 3 4 5 5 6 6 5 5 4 4 4 5 5 6 7 3 5 6 8 10 10 12 10 7 9 11 10 11 10 10 12 12 11 10 12 15 17 17 17 18 16 11 10 10 9 8 9 9
8 9 9 8 7 5 5 4 5 5 6 7 6 5 6 5 6 6 6 5 5 5 4 4 4 6 7 5 5 4 5 7 9 10 9 9 8 10 10 10 11 11 11 12 12 11 10 10 12 15 16 16 17 17 15 12 11 9 8 9 9 9
9 8 8 8 7 7 5 4 2 3 5 4 5 5 6 6 7 7 6 6 6 5 5 5 6 7 7 6 5 5 7 8 9 10 9 9 10 11 11 10 10 11 11 11 10 10 11 12 14 14 15 15 16 17 15 11 10 9 7 8 8 9
6 6 7 6 6 6 4 4 2 2 5 3 4 5 5 6 7 7 6 6 6 5 5 5 6 7 6 6 7 7 9 9 10 10 8 8 9 9 8 9 9 11 11 10 8 10 13 12 13 14 15 16 16 16 11 9 9 9 8 8 8 8
4 5 5 5 5 5 4 2 1 3 4 6 5 5 5 4 6 8 7 7 6 6 5 6 6 7 7 6 7 8 9 9 10 7 6 9 9 9 10 10 9 9 9 10 10 11 13 11 11 14 15 16 16 12 9 9 8 8 9 9 7 8
4 4 4 6 7 5 4 4 5 5 5 6 6 7 7 6 7 7 8 8 7 6 5 5 6 7 7 6 8 8 8 7 7 6 5 9 9 10 10 7 8 8 9 10 11 11 11 11 9 13 15 16 16 13 10 8 8 9 8 7 6 5
6 7 7 6 8 9 7 6 6 6 6 5 6 6 6 7 7 7 8 9 8 8 7 6 6 7 8 9 11 8 8 7 6 5 5 7 8 9 6 5 7 7 6 8 10 9 12 11 9 12 15 16 15 12 9 7 7 8 8 8 7 5
7 8 8 9 9 9 9 6 6 7 7 6 6 7 7 7 8 7 7 7 8 8 7 6 5 9 6 8 8 7 7 4 4 6 6 6 6 6 6 7 7 9 9 7 7 10 10 10 9 10 15 15 16 17 10 6 8 10 9 7 7 6
3 4 7 7 7 7 7 8 6 6 6 6 7 8 8 8 7 7 8 8 8 8 8 7 7 8 8 7 8 7 5 4 5 5 6 6 6 6 7 8 8 9 10 8 8 8 9 10 10 9 14 15 16 17 15 8 10 8 7 7 6 6
5 5 7 8 7 7 7 7 7 7 6 6 9 10 8 8 8 8 7 8 8 8 9 7 7 6 7 7 6 7 8 5 5 6 5 5 5 8 10 8 8 9 9 8 9 10 12 11 15 11 13 17 17 17 19 11 10 9 8 7 7 7
6 7 8 8 7 7 7 5 7 8 6 7 12 10 8 8 8 8 8 8 9 7 7 7 8 8 6 7 7 8 10 5 5 6 6 6 7 8 10 9 8 9 9 9 8 9 11 11 11 16 14 16 17 17 18 19 12 12 9 10 11 10
5 7 7 7 7 7 6 7 9 7 6 11 12 10 10 9 8 8 10 8 8 8 8 8 8 7 7 7 6 7 8 7 5 5 6 6 8 9 8 8 7 7 10 11 9 10 10 9 9 10 15 13 16 17 18 19 17 15 11 9 8 7
9 8 8 7 8 7 8 7 9 8 7 9 9 10 11 11 8 8 9 10 9 9 9 9 8 8 7 6 5 6 5 7 5 6 6 6 8 8 9 9 7 9 10 8 9 8 8 8 8 9 11 15 15 17 18 19 19 17 16 11 8 9
8 9 11 8 4 7 6 7 7 8 11 7 8 10 10 9 10 11 12 11 10 10 9 10 10 8 7 7 5 6 5 5 5 6 5 6 8 8 9 9 8 8 8 9 11 10 9 8 8 9 8 9 12 13 18 19 18 15 15 13 7 10
8 10 10 14 6 5 7 5 5 9 9 9 9 7 9 10 10 12 12 11 11 11 8 9 8 6 7 5 4 5 5 5 6 6 7 7 7 8 9 10 9 9 10 10 9 9 9 9 8 8 8 8 7 9 10 11 12 13 12 9 6 8
8 12 12 13 11 7 9 8 5 6 5 5 6 7 8 9 10 11 13 13 11 10 10 9 12 11 7 5 4 5 5 6 6 8 9 8 8 7 10 10 10 11 10 9 9 8 10 10 9 9 8 11 11 7 7 9 9 10 9 9 6 5
9 11 11 14 11 8 7 8 7 4 4 5 5 6 8 10 11 11 12 11 9 10 8 7 10 7 6 6 4 5 6 6 6 8 9 11 8 9 8 6 9 10 7 7 7 7 9 8 12 13 9 9 7 8 9 9 10 9 8 9 11 8
8 11 14 15 12 9 9 11 8 4 2 4 5 6 8 10 11 12 12 9 9 9 8 6 5 5 6 6 6 6 7 12 15 13 9 8 11 17 17 14 11 7 5 8 8 9 11 12 9 3 10 15 13 14 14 13 11 10 9 12 17 12
10 10 12 14 12 10 10 11 11 6 4 5 5 6 8 9 10 11 11 10 9 9 7 7 7 6 5 5 5 7 7 8 9 17 21 20 15 13 17 19 21 18 14 8 8 8 16 16 10 8 11 15 15 15 15 14 14 15 15 18 14 11
11 11 13 13 10 9 10 12 12 5 4 5 6 6 8 9 8 9 11 11 10 11 11 6 8 7 6 7 5 6 7 8 9 8 13 19 20 20 20 18 19 19 19 19 15 11 8 10 13 11 13 15 16 16 17 17 17 18 20 22 20 12
12 12 12 11 9 10 11 12 14 6 5 7 7 7 10 10 9 11 13 12 12 10 12 7 6 7 6 8 7 6 5 7 7 9 8 6 16 20 20 21 20 19 19 20 22 21 18 14 10 13 14 16 17 18 18 19 20 20 20 21 14 12
12 12 12 10 11 12 12 13 14 7 6 8 8 8 10 11 10 11 11 11 11 10 10 8 8 7 7 7 7 7 7 7 7 8 7 7 5 6 11 16 20 19 19 21 21 21 21 19 16 14 16 17 18 19 19 18 16 19 21 20 14 12
11 11 10 10 10 10 12 15 15 6 6 9 9 10 10 10 10 10 13 17 13 7 9 9 8 8 8 8 7 7 7 8 7 7 7 7 7 7 9 6 7 14 19 17 16 20 21 19 18 17 17 18 19 20 19 17 10 13 13 13 13 12
10 10 8 7 9 11 14 18 14 6 9 10 9 10 11 11 10 11 10 10 11 9 8 8 9 8 9 9 8 7 7 8 8 9 8 7 8 9 8 9 7 5 9 19 20 18 18 19 19 18 18 18 20 19 20 15 13 10 10 11 13 13
Wind_Direction
271 270 267 267 258 253 256 261 247 240 238 235 237 241 238 236 227 226 225 220 219 218 219 217 218 219 222 222 223 224 225 227 226 227 229 230 223 217 215 209 211 210 209 211 217 225 231 228 227 226 225 223 225 227 230 229 228 228 227 229 229 231
287 275 267 265 269 276 267 256 243 241 241 236 236 243 246 239 231 226 228 223 221 223 221 223 221 221 221 221 220 222 226 228 228 226 229 229 225 224 219 213 212 212 211 210 215 218 231 228 229 228 227 224 224 227 228 230 227 227 228 230 227 227
271 258 256 287 295 269 263 260 258 258 249 245 243 243 242 237 233 227 229 227 225 225 224 223 220 223 222 224 224 226 229 231 229 229 229 227 227 222 213 213 215 214 213 213 211 215 224 229 223 228 227 225 227 227 229 230 228 226 228 227 223 216
272 274 304 308 288 273 261 248 254 261 251 247 248 245 246 246 240 231 236 231 232 228 230 229 227 223 221 221 224 224 228 229 227 225 223 224 226 221 217 216 217 215 215 215 215 215 219 225 218 229 225 224 224 226 227 228 228 227 227 221 226 221
286 308 307 285 271 275 284 288 270 265 264 255 247 242 249 245 248 247 239 240 235 235 234 233 231 228 226 227 229 230 230 230 229 224 220 222 231 227 220 218 217 215 213 214 216 216 220 226 228 227 225 224 224 223 223 224 224 225 220 220 222 222
300 302 301 296 286 287 288 282 277 276 269 266 254 245 244 240 242 244 243 241 240 236 235 233 233 233 231 233 234 237 236 233 232 226 228 231 230 229 226 219 220 227 224 222 224 228 228 227 228 225 220 227 226 225 224 224 224 221 222 223 223 219
292 304 308 306 306 302 295 285 281 280 279 261 254 251 234 233 228 233 237 236 240 236 234 233 227 229 232 234 239 242 243 246 251 248 244 238 240 242 240 237 229 233 231 229 229 228 229 228 227 228 226 227 227 226 223 221 219 222 223 224 224 219
299 304 303 298 282 286 304 303 287 282 282 269 260 265 252 232 222 227 232 234 237 240 237 236 230 231 233 236 240 245 247 249 251 250 246 238 238 238 237 234 229 224 227 228 228 229 230 229 225 226 225 223 220 220 223 224 224 224 224 223 222 222
326 322 310 285 274 236 269 277 276 260 257 266 244 246 272 277 247 228 228 236 237 243 240 233 230 233 238 240 244 248 247 243 249 249 248 242 236 233 231 228 227 224 225 228 226 225 222 223 220 223 224 224 222 220 221 223 224 226 225 223 222 221
291 287 288 306 328 322 272 240 251 264 268 273 244 237 235 249 268 267 247 241 246 245 246 244 245 247 249 252 251 250 249 246 245 249 248 244 234 229 231 230 225 225 219 224 227 229 225 224 222 219 221 221 220 219 221 220 222 225 225 225 223 222
286 289 302 311 311 305 308 300 267 242 267 254 278 258 244 235 236 250 246 240 244 248 257 273 272 266 263 255 252 247 245 245 246 247 241 237 238 234 236 235 230 225 222 223 224 224 220 222 222 219 217 219 219 219 221 220 221 222 225 226 224 223
303 294 283 275 277 284 304 324 324 325 318 313 315 256 236 205 231 247 249 243 245 248 250 256 250 247 250 251 245 242 243 245 246 245 241 238 237 239 237 238 235 229 226 225 225 224 223 223 223 220 217 214 216 218 223 222 221 220 222 223 225 225
302 294 266 259 268 287 299 303 298 304 309 296 296 299 82 190 238 234 240 252 255 261 260 254 252 242 247 245 248 247 240 242 244 244 245 243 241 238 237 235 236 233 231 229 227 225 226 227 225 220 217 218 216 218 221 220 224 223 223 220 216 221
286 289 295 309 326 303 298 292 287 296 292 301 310 332 31 219 238 242 243 242 246 240 234 234 237 236 244 240 245 243 249 252 248 247 243 243 238 236 231 231 231 235 233 232 231 230 228 230 228 220 220 219 219 219 224 225 224 221 221 217 216 219
275 285 309 341 348 333 280 260 279 283 293 311 324 338 259 242 241 249 251 247 243 250 238 246 261 267 267 268 273 255 260 254 253 250 248 243 239 231 226 231 230 233 231 228 229 232 231 234 226 222 222 220 219 220 221 230 227 223 222 215 211 209
292 325 343 336 318 291 287 267 274 295 317 312 318 292 275 264 250 234 248 254 256 259 272 277 273 273 269 266 267 261 253 251 248 251 251 256 248 234 234 231 230 232 228 227 229 232 233 232 226 221 223 221 220 220 218 229 228 228 219 212 209 209
336 324 323 326 320 311 314 319 349 311 286 271 272 268 276 268 267 261 252 251 255 255 259 260 252 256 262 262 257 252 252 248 254 251 248 242 241 240 237 232 230 231 231 231 229 234 236 235 225 221 221 221 221 221 218 227 228 226 224 220 213 210
311 314 307 302 304 305 312 328 7 264 269 231 243 265 256 268 271 273 271 270 262 255 247 238 244 246 248 248 259 245 250 246 244 247 248 247 247 244 248 246 236 235 231 231 228 233 240 239 221 218 219 221 222 221 219 221 225 226 220 219 216 213
320 302 293 292 298 301 315 357 296 301 321 328 325 294 289 286 287 288 284 278 280 273 259 243 242 245 243 238 233 235 245 248 248 236 228 243 244 245 241 242 240 243 239 235 230 233 244 248 225 217 220 221 219 214 217 214 216 219 218 218 210 208
313 293 311 316 306 310 341 9 359 348 337 326 320 321 315 316 298 296 299 298 298 291 278 259 253 253 247 235 231 232 240 247 254 244 216 224 240 242 246 252 254 245 237 234 232 227 238 245 224 217 222 220 216 206 209 205 204 212 210 214 205 204
342 318 323 321 319 325 345 0 356 344 325 319 312 307 302 297 292 297 304 306 305 300 292 283 268 259 255 254 247 246 252 244 237 232 221 226 228 242 249 244 250 253 244 240 241 232 232 244 233 220 223 220 215 207 208 199 198 204 209 201 200 168
348 337 329 320 314 319 324 348 347 328 312 309 305 299 291 285 286 294 294 289 287 288 287 277 265 263 261 261 263 256 247 236 232 225 221 225 222 233 232 238 240 247 249 243 244 241 236 240 239 221 223 219 216 207 200 196 197 209 206 197 191 186
335 295 294 297 300 310 315 334 332 311 308 306 301 286 282 286 290 288 288 286 286 285 281 276 259 270 268 259 261 261 251 233 227 223 220 223 225 225 230 228 234 240 249 245 244 246 243 237 239 230 219 221 216 208 196 200 206 202 184 186 186 195
295 280 274 272 289 295 303 310 306 294 306 307 285 279 285 291 291 289 285 280 277 278 281 283 281 266 265 268 264 263 260 245 228 233 224 226 226 228 234 230 230 235 243 242 238 240 244 239 234 238 223 220 216 211 204 202 212 202 184 184 197 196
282 272 274 285 285 287 285 298 291 284 284 279 279 292 298 295 293 289 284 282 281 278 275 273 273 272 265 261 252 254 262 253 235 231 227 226 231 234 239 236 234 237 242 243 233 234 235 234 233 229 229 220 215 212 210 211 208 190 190 194 202 202
253 264 259 272 276 276 275 274 278 278 278 269 282 294 295 293 288 292 294 290 285 285 281 277 273 267 263 259 255 249 255 251 235 236 228 222 229 238 238 236 227 233 241 243 242 237 230 226 230 227 227 226 215 214 212 212 210 191 200 199 209 192
297 290 277 263 265 264 268 254 266 274 270 267 285 292 296 297 297 295 290 290 289 288 287 288 282 277 269 260 248 252 244 251 231 241 235 225 230 231 238 240 224 231 238 240 243 243 237 232 230 234 223 224 224 220 218 217 213 207 197 200 210 187
282 287 290 283 236 259 255 259 252 270 269 279 291 288 292 294 297 294 290 292 292 289 289 291 288 276 265 260 243 241 234 238 229 228 232 221 235 232 229 236 227 234 236 243 246 245 241 236 233 230 224 216 224 224 222 216 212 205 201 204 194 187
289 294 294 296 291 268 274 262 254 256 276 283 282 286 287 292 290 288 289 292 295 295 292 287 287 288 279 253 246 237 237 227 232 229 231 225 228 233 236 233 228 231 235 235 236 239 244 237 233 228 218 210 210 214 214 209 210 204 197 200 195 178
299 299 302 296 298 302 291 288 277 271 270 271 270 273 280 280 279 282 287 290 293 293 294 288 282 280 276 260 238 245 234 225 218 228 227 216 213 218 231 229 232 231 226 232 237 235 238 233 232 223 205 214 213 200 192 199 197 192 194 194 177 162
299 290 289 288 294 297 290 288 287 278 262 262 259 262 270 277 281 278 278 280 280 279 279 273 279 276 276 272 251 227 226 230 224 226 242 233 226 220 224 221 229 233 230 230 226 218 233 229 231 230 214 230 237 218 204 195 198 189 191 179 150 135
276 287 290 294 302 302 293 292 291 292 264 271 274 273 277 285 291 293 290 288 284 282 279 272 268 265 263 261 268 265 257 232 228 236 236 252 221 229 231 229 239 230 212 230 234 220 228 234 237 172 189 218 213 213 213 212 200 190 175 156 156 156
281 278 280 282 292 294 294 293 294 303 290 273 278 278 280 286 291 290 291 293 290 288 284 285 283 278 269 262 259 264 266 278 233 226 236 243 250 238 233 234 240 244 245 241 247 236 238 251 256 219 196 202 208 202 205 204 196 184 172 160 155 178
276 276 277 282 283 285 287 287 286 294 295 283 278 275 277 280 281 283 288 291 290 289 282 268 277 278 271 271 255 253 263 264 278 268 217 226 237 241 243 240 237 238 237 240 240 245 254 238 233 219 197 194 193 199 201 202 195 190 179 177 171 175
267 270 275 280 283 283 284 284 285 300 306 291 286 279 280 278 274 279 285 288 288 284 280 271 265 268 269 275 268 258 245 255 262 271 289 212 221 232 236 240 241 238 236 236 239 236 237 241 222 201 194 188 191 196 202 201 198 193 189 178 187 197
270 267 270 277 279 279 280 281 282 301 299 289 286 277 272 275 272 269 275 284 288 287 285 278 272 269 269 263 266 265 262 255 246 262 262 280 286 246 238 240 241 239 237 237 235 234 233 233 226 203 195 194 194 196 199 199 202 198 189 186 198 199
269 274 272 271 275 278 279 280 284 303 289 286 285 280 277 274 274 275 274 272 274 270 273 273 270 268 267 270 263 263 256 253 253 249 254 253 255 260 264 265 232 229 230 236 236 232 230 224 220 209 202 200 198 196 195 190 189 191 197 201 210 206
263 266 272 276 280 282 283 282 286 306 288 286 284 281 279 280 279 280 279 283 280 274 267 266 268 263 264 266 262 260 256 261 262 255 253 253 252 256 261 263 244 234 217 226 235 233 227 223 218 213 207 206 200 195 178 182 196 192 198 202 208 212